Orbital Elements at Epoch 2459200.5 (2020-Dec-17.0) TDB
Reference: JPL 16 (heliocentric ecliptic J2000)
Element | Value | Uncertainty (1-sigma) | Units |
e | .2307254685144046 | 9.4484e-08 | |
a | 2.569394594021822 | 2.2373e-08 | au |
q | 1.976569822517759 | 2.5649e-07 | au |
i | 6.228280471028322 | 5.1095e-06 | deg |
node | 164.0598004896395 | 3.9201e-05 | deg |
peri | 216.0230806561431 | 4.1508e-05 | deg |
M | 9.950087727290931 | 8.2583e-06 | deg |
tp | 2459158.921478223881 (2020-Nov-05.42147822) | 3.4717e-05 | TDB |
period | 1504.335263130209 4.12 | 1.9648e-05 5.379e-08 | d yr |
n | .2393083568691428 | 3.1256e-09 | deg/d |
Q | 3.162219365525885 | 2.7534e-08 | au |
|
| | Orbit Determination Parameters
Additional Information
|